RH
79 76 75 84 96 97 95 81 75 60 52 39 28 32 22 16 15 16 18 18 18 18 18 17 17 18 18 17 17 17 16 16 15
89 96 92 87 97 98 94 91 76 69 65 61 43 37 43 41 23 19 33 30 29 18 18 18 18 18 18 17 17 16 16 15 15
97 98 94 91 100 98 96 93 85 74 77 77 71 64 58 49 49 45 47 46 44 45 46 30 21 18 18 17 16 16 15 15 14
99 100 97 97 94 92 95 97 92 84 82 82 81 77 71 72 74 78 70 72 60 56 55 46 29 26 25 25 24 22 20 18 16
94 97 98 98 99 97 98 96 98 84 77 77 75 78 75 75 74 80 89 89 88 80 75 77 75 70 64 60 59 54 49 45 37
96 98 98 99 99 99 99 98 94 86 80 78 76 77 74 71 70 70 75 82 85 86 85 88 85 81 78 76 69 74 80 74 68
57 96 99 95 99 98 97 97 96 92 80 73 65 58 54 51 49 49 48 59 69 73 79 75 80 80 85 87 86 80 80 82 85
57 74 92 98 91 96 97 97 97 98 74 64 60 62 54 49 47 45 65 82 80 80 74 83 88 92 94 90 85 82 80 75 75
42 67 92 92 98 99 94 94 99 97 78 66 61 60 56 58 67 75 91 93 95 88 86 92 94 92 86 76 70 67 68 72 73
74 67 63 62 79 90 82 78 72 70 79 71 54 58 60 57 66 87 95 100 99 97 94 92 90 86 80 76 70 57 44 40 39
85 86 81 78 74 75 76 79 78 78 76 67 61 68 67 68 61 67 90 95 99 99 98 93 93 78 65 58 53 53 57 70 77
100 95 87 85 84 96 94 95 95 99 92 99 79 71 70 73 67 63 69 83 87 88 86 80 70 74 92 92 92 91 92 94 94
96 89 99 86 96 96 100 98 100 100 99 96 93 93 95 97 99 98 95 86 83 96 98 97 98 96 100 98 94 80 90 96 95
91 91 80 88 97 99 99 100 100 100 98 100 100 100 100 100 100 99 99 99 100 99 99 99 100 99 99 75 87 55 50 35 35
78 80 96 97 94 89 95 100 100 100 98 100 100 100 100 100 99 96 99 100 81 46 38 43 64 59 28 9 9 8 8 8 8
86 74 80 97 98 91 73 100 99 100 100 98 100 100 98 99 100 99 33 23 15 15 19 12 10 9 8 10 10 11 11 11 11
99 98 97 100 99 98 85 99 82 98 100 100 100 100 98 74 44 17 14 14 13 12 12 12 12 12 12 13 13 13 13 12 12
100 100 100 100 99 98 92 97 100 96 88 94 92 53 33 21 16 15 14 14 13 13 13 13 13 14 14 14 14 14 14 13 12
100 100 95 99 97 100 99 99 99 91 69 50 35 27 31 22 19 18 17 17 16 16 15 15 15 15 15 15 15 15 14 14 14
100 100 92 84 99 97 100 99 99 93 67 36 28 25 23 22 20 20 20 18 18 18 17 17 16 17 17 16 16 15 15 16 18
Wind_Speed
26 26 27 26 27 28 26 22 20 18 18 18 17 17 17 17 17 17 17 16 15 12 11 10 10 8 7 6 6 6 7 8 9
24 26 29 26 33 32 31 27 22 19 19 18 18 18 16 16 16 16 15 15 14 13 12 11 10 8 7 6 6 5 6 6 7
25 26 24 28 28 27 29 27 22 20 19 19 18 18 17 16 14 13 14 14 13 12 11 10 10 9 8 7 6 6 6 7 7
18 21 26 28 25 23 27 26 22 20 20 19 18 16 15 15 14 14 16 15 14 11 10 8 8 8 8 8 8 7 7 7 7
15 18 18 19 22 26 28 26 23 20 19 18 18 18 17 17 16 14 14 14 14 12 10 9 8 8 7 8 9 9 8 7 6
8 16 19 21 24 23 25 22 19 20 19 18 18 16 15 14 14 14 14 13 13 12 11 10 9 8 7 8 9 9 8 7 7
14 18 23 16 18 22 28 25 22 22 20 19 19 18 17 16 15 15 15 15 14 14 13 11 10 11 9 11 11 11 10 10 10
19 22 23 16 16 18 28 29 29 23 19 19 19 19 19 17 17 15 14 15 15 15 13 13 12 12 11 11 9 7 6 5 6
22 21 21 18 21 24 24 27 26 28 23 19 18 18 19 20 18 18 17 17 15 15 14 14 12 10 10 8 7 7 7 6 5
26 24 23 22 24 27 27 26 21 18 15 22 23 24 23 23 24 25 23 21 18 13 14 13 13 13 11 10 11 10 9 8 7
32 29 27 25 28 30 28 26 25 25 24 26 26 26 25 24 25 26 27 26 21 19 18 15 16 15 15 14 12 11 11 9 8
29 26 25 27 28 28 32 30 30 28 31 30 26 25 25 24 23 24 26 24 23 21 21 23 21 18 17 16 15 15 14 14 13
30 32 31 33 31 32 32 27 33 33 33 33 31 30 29 29 24 26 25 24 22 22 24 22 22 21 18 17 18 18 18 18 18
36 35 38 34 34 28 34 32 33 31 35 32 32 30 29 27 29 27 25 25 21 24 21 19 23 22 23 23 24 23 22 21 20
40 39 37 39 38 34 30 30 35 40 35 31 33 29 31 26 29 26 22 25 28 26 24 26 24 22 26 23 22 22 21 20 20
41 41 41 42 38 39 37 39 31 41 40 32 33 31 27 27 32 31 31 29 28 26 24 24 24 25 26 23 22 21 21 21 20
42 42 42 39 42 38 36 46 40 37 33 34 30 28 34 36 34 31 30 29 28 26 26 25 25 26 25 24 24 23 22 22 21
47 45 44 40 43 42 44 40 38 39 35 35 36 36 37 32 32 32 31 30 29 28 28 28 27 26 26 26 25 25 25 24 23
49 48 46 44 47 40 43 46 44 42 40 38 35 36 34 32 34 33 32 31 31 30 30 29 29 29 28 28 28 27 26 26 25
53 52 54 53 47 48 45 46 46 45 43 38 38 37 37 35 35 33 32 32 32 31 31 31 31 31 30 29 29 29 28 28 27
Wind_Direction
197 195 194 189 182 179 173 165 159 168 163 159 158 157 160 160 159 159 165 173 176 174 170 165 161 155 145 134 119 107 94 88 87
198 204 189 189 188 181 171 165 163 169 164 162 160 160 161 158 161 162 159 163 169 178 180 180 177 168 161 152 139 124 110 100 93
192 179 202 197 190 195 175 159 172 169 166 162 161 163 162 158 158 160 159 162 163 168 167 174 173 170 162 154 137 130 121 113 104
184 188 180 184 193 201 192 165 165 169 169 165 166 169 167 160 160 164 167 170 169 175 169 169 171 161 157 151 147 138 129 119 113
187 190 175 185 191 182 169 164 166 176 177 176 176 175 174 171 166 166 164 167 173 180 182 173 163 156 160 156 147 138 134 128 122
182 181 180 181 185 172 167 167 176 182 183 180 179 180 184 186 184 186 182 187 189 186 184 178 176 172 162 164 148 135 124 130 126
188 191 185 162 192 190 179 171 184 179 185 186 188 189 192 194 196 201 205 203 200 197 194 196 179 169 163 145 142 140 139 122 107
202 197 207 192 176 182 189 182 185 184 200 197 194 189 191 191 190 190 187 188 193 192 185 179 167 162 156 147 142 141 141 141 126
200 205 207 202 192 190 191 196 195 195 202 208 207 204 199 196 189 185 180 182 174 164 162 163 165 177 190 200 221 228 217 209 190
200 204 206 204 206 207 203 203 207 215 206 211 212 207 205 202 195 189 182 184 185 183 186 195 203 209 215 219 232 239 238 232 220
211 203 202 213 209 216 214 213 212 208 209 212 210 207 205 207 207 206 202 203 206 211 209 209 207 214 225 228 230 231 233 233 233
217 220 216 218 220 223 218 214 212 209 219 219 216 213 201 215 216 217 220 221 222 224 224 224 227 228 229 231 235 239 239 238 238
227 221 218 222 228 231 229 242 215 217 218 217 217 218 206 213 216 219 224 223 220 231 238 233 233 236 237 246 246 240 243 246 249
232 234 228 234 234 229 236 236 227 211 230 225 225 229 201 219 220 225 230 227 225 226 236 236 230 226 241 247 245 251 252 250 250
232 232 229 232 232 234 239 230 238 224 227 226 227 215 203 214 219 227 223 222 245 241 239 241 242 241 250 248 246 247 247 247 249
234 235 235 230 234 235 234 235 230 237 227 235 209 209 231 217 218 231 236 237 239 240 239 238 242 244 246 250 251 249 250 251 250
235 235 239 235 232 235 238 227 251 236 221 225 223 221 222 234 236 238 239 240 242 243 244 243 241 243 246 249 250 251 251 252 252
241 235 235 231 239 235 236 231 225 242 243 239 241 237 233 234 236 238 241 243 244 244 244 244 244 246 247 250 252 252 251 250 249
228 238 241 234 238 235 237 237 237 238 236 234 235 238 239 239 240 241 242 242 243 244 243 244 246 247 248 248 249 250 250 250 250
229 221 234 235 228 240 234 238 236 233 234 229 232 234 236 237 240 241 243 245 244 244 246 248 249 250 250 251 250 250 250 252 254